Weather History for KPTB - November, 2012

Change the Weather History Date:

Friday, November 23, 2012

  Actual Average (KRIC) Record (KRIC)
Temperature  
Mean Temperature 48 °F 48 °F  
Max Temperature 69 °F 59 °F 82 °F (1900)
Min Temperature 26 °F 37 °F 20 °F (1964)
Degree Days  
Heating Degree Days 18 17  
Month to date heating degree days 313  
Since 1 July heating degree days 546  
Cooling Degree Days 0 0  
Month to date cooling degree days 0  
Year to date cooling degree days 1543  
Moisture  
Dew Point 31 °F    
Average Humidity 57    
Maximum Humidity 100    
Minimum Humidity 25    
Precipitation  
Precipitation 0.00 in 0.10 in 1.47 in (1907)
Month to date precipitation 2.47  
Year to date precipitation 39.57  
Snow  
Snow 0.00 in 0.00 in 2.90 in (1929)
Month to date snowfall 0.1  
Since 1 July snowfall 0.1  
Snow Depth -    
Sea Level Pressure  
Sea Level Pressure 29.97 in    
Wind  
Wind Speed 3 mph (SW)    
Max Wind Speed 13 mph    
Max Gust Speed 18 mph    
Visibility 10 miles    
Events      
T = Trace of Precipitation, MM = Missing Value Source: NWS Daily Summary

Daily Weather History Graph

Daily Weather History Graph

Search for Another Location

Airport or City:

Trip Planner

Search our weather history database for the weather conditions in past years. The results will help you decide how hot, cold, wet, or windy it might be!

Date:

Astronomy

Nov. 23, 2012 Rise Set
Actual Time 6:57 AM EST 4:55 PM EST
Civil Twilight 6:29 AM EST 5:23 PM EST
Nautical Twilight 5:57 AM EST 5:55 PM EST
Astronomical Twilight 5:26 AM EST 6:26 PM EST
Moon 2:04 PM EST (11/23) 2:20 AM EST (11/23)
Length of Visible Light 10h 53m
Length of Day
9h 57m
Waxing Gibbous, 79% of the Moon is Illuminated
Nov 23
Waxing Gibbous
Nov 28
Full
Dec 6
Last Quarter
Dec 13
New
Dec 20
First Quarter

Hourly Weather History & Observations

Time (EST) Temp. Dew Point Humidity Pressure Visibility Wind Dir Wind Speed Gust Speed Precip Events Conditions
12:15 AM 28.4 °F 28.4 °F 100% 30.16 in 10.0 mi Calm Calm - N/A   Clear
12:35 AM 28.4 °F 26.6 °F 93% 30.16 in 10.0 mi Calm Calm - N/A   Clear
12:55 AM 28.4 °F 26.6 °F 93% 30.15 in 10.0 mi Calm Calm - N/A   Clear
1:15 AM 28.4 °F 26.6 °F 93% 30.14 in 10.0 mi Calm Calm - N/A   Clear
1:35 AM 28.4 °F 26.6 °F 93% 30.14 in 10.0 mi Calm Calm - N/A   Clear
1:55 AM 28.4 °F 26.6 °F 93% 30.14 in 10.0 mi Calm Calm - N/A   Clear
2:15 AM 28.4 °F 26.6 °F 93% 30.14 in 10.0 mi Calm Calm - N/A   Clear
2:35 AM 28.4 °F 28.4 °F 100% 30.14 in 10.0 mi Calm Calm - N/A   Clear
2:55 AM 28.4 °F 26.6 °F 93% 30.14 in 10.0 mi Calm Calm - N/A   Clear
3:15 AM 28.4 °F 26.6 °F 93% 30.13 in 10.0 mi Calm Calm - N/A   Clear
3:35 AM 26.6 °F 26.6 °F 100% 30.13 in 10.0 mi Calm Calm - N/A   Clear
3:55 AM 26.6 °F 26.6 °F 100% 30.12 in 10.0 mi Calm Calm - N/A   Clear
4:15 AM 26.6 °F 26.6 °F 100% 30.12 in 10.0 mi Calm Calm - N/A   Clear
4:35 AM 28.4 °F 26.6 °F 93% 30.12 in 10.0 mi Calm Calm - N/A   Clear
4:55 AM 26.6 °F 26.6 °F 100% 30.11 in 10.0 mi Calm Calm - N/A   Clear
5:15 AM 26.6 °F 24.8 °F 93% 30.11 in 10.0 mi Calm Calm - N/A   Clear
5:35 AM 26.6 °F 26.6 °F 100% 30.11 in 10.0 mi Calm Calm - N/A   Clear
5:55 AM 26.6 °F 24.8 °F 93% 30.11 in 10.0 mi Calm Calm - N/A   Clear
6:15 AM 26.6 °F 26.6 °F 100% 30.10 in 10.0 mi Calm Calm - N/A   Clear
6:35 AM 26.6 °F 24.8 °F 93% 30.10 in 10.0 mi Calm Calm - N/A   Clear
6:55 AM 26.6 °F 26.6 °F 100% 30.10 in 10.0 mi Calm Calm - N/A   Clear
7:15 AM 26.6 °F 26.6 °F 100% 30.09 in 10.0 mi Calm Calm - N/A   Clear
7:35 AM 28.4 °F 26.6 °F 93% 30.09 in 10.0 mi Calm Calm - N/A   Clear
7:55 AM 32.0 °F 30.2 °F 93% 30.08 in 10.0 mi Calm Calm - N/A   Clear
8:15 AM 37.4 °F 33.8 °F 87% 30.07 in 10.0 mi Calm Calm - N/A   Clear
8:35 AM 42.8 °F 35.6 °F 76% 30.07 in 10.0 mi Calm Calm - N/A   Clear
8:55 AM 46.4 °F 33.8 °F 62% 30.07 in 10.0 mi Calm Calm - N/A   Clear
9:15 AM 48.2 °F 33.8 °F 58% 30.06 in 10.0 mi SSE 3.5 mph - N/A   Clear
9:35 AM 51.8 °F 33.8 °F 50% 30.05 in 10.0 mi Calm Calm - N/A   Clear
9:55 AM 55.4 °F 30.2 °F 38% 30.04 in 10.0 mi South 4.6 mph - N/A   Clear
10:15 AM 57.2 °F 26.6 °F 31% 30.03 in 10.0 mi South 5.8 mph - N/A   Clear
10:35 AM 59.0 °F 26.6 °F 29% 30.02 in 10.0 mi SSW 9.2 mph - N/A   Clear
10:55 AM 60.8 °F 26.6 °F 27% 30.01 in 10.0 mi SW 8.1 mph - N/A   Clear
11:15 AM 62.6 °F 28.4 °F 27% 30.00 in 10.0 mi SW 8.1 mph - N/A   Clear
11:35 AM 62.6 °F 28.4 °F 27% 29.99 in 10.0 mi SW 8.1 mph - N/A   Clear
11:55 AM 64.4 °F 28.4 °F 26% 29.96 in 10.0 mi SSW 6.9 mph - N/A   Clear
12:15 PM 66.2 °F 30.2 °F 26% 29.95 in 10.0 mi SSW 9.2 mph - N/A   Clear
12:35 PM 66.2 °F 30.2 °F 26% 29.94 in 10.0 mi SW 10.4 mph - N/A   Clear
12:55 PM 68.0 °F 32.0 °F 26% 29.92 in 10.0 mi SSW 6.9 mph 10.4 mph N/A   Clear
1:15 PM 68.0 °F 32.0 °F 26% 29.91 in 10.0 mi SSW 9.2 mph - N/A   Clear
1:35 PM 69.8 °F 32.0 °F 25% 29.91 in 10.0 mi SSW 10.4 mph 18.4 mph N/A   Clear
1:55 PM 68.0 °F 32.0 °F 26% 29.89 in 10.0 mi WSW 9.2 mph - N/A   Clear
2:15 PM 69.8 °F 32.0 °F 25% 29.88 in 10.0 mi SSW 8.1 mph - N/A   Clear
2:35 PM 69.8 °F 33.8 °F 27% 29.87 in 10.0 mi SW 8.1 mph - N/A   Clear
2:55 PM 68.0 °F 33.8 °F 28% 29.86 in 10.0 mi SSW 10.4 mph - N/A   Clear
3:15 PM 69.8 °F 33.8 °F 27% 29.85 in 10.0 mi SSW 6.9 mph - N/A   Clear
3:35 PM 68.0 °F 33.8 °F 28% 29.84 in 10.0 mi SSW 8.1 mph - N/A   Clear
3:55 PM 66.2 °F 33.8 °F 30% 29.83 in 10.0 mi SSW 6.9 mph - N/A   Clear
4:15 PM 66.2 °F 32.0 °F 28% 29.84 in 10.0 mi SW 10.4 mph - N/A   Clear
4:35 PM 64.4 °F 33.8 °F 32% 29.84 in 10.0 mi SSW 4.6 mph - N/A   Clear
4:55 PM 62.6 °F 33.8 °F 34% 29.83 in 10.0 mi SSW 5.8 mph - N/A   Clear
5:15 PM 60.8 °F 33.8 °F 36% 29.83 in 10.0 mi South 3.5 mph - N/A   Clear
5:35 PM 60.8 °F 33.8 °F 36% 29.83 in 10.0 mi SSW 5.8 mph - N/A   Clear
5:55 PM 60.8 °F 33.8 °F 36% 29.83 in 10.0 mi SSW 4.6 mph - N/A   Clear
6:15 PM 60.8 °F 33.8 °F 36% 29.83 in 10.0 mi SSW 4.6 mph - N/A   Clear
6:35 PM 60.8 °F 33.8 °F 36% 29.84 in 10.0 mi SSW 4.6 mph - N/A   Clear
6:55 PM 60.8 °F 33.8 °F 36% 29.84 in 10.0 mi SSW 6.9 mph - N/A   Mostly Cloudy
7:15 PM 60.8 °F 33.8 °F 36% 29.84 in 10.0 mi SSW 6.9 mph - N/A   Overcast
7:35 PM 60.8 °F 33.8 °F 36% - 10.0 mi SW 8.1 mph - N/A   Overcast
7:55 PM 60.8 °F 33.8 °F 36% 29.84 in 10.0 mi SW 8.1 mph - N/A   Overcast
8:15 PM 60.8 °F 33.8 °F 36% 29.83 in 10.0 mi SW 6.9 mph - N/A   Mostly Cloudy
8:35 PM 57.2 °F 35.6 °F 44% 29.83 in 10.0 mi SW 6.9 mph - N/A   Scattered Clouds
8:55 PM 59.0 °F 35.6 °F 42% 29.82 in 10.0 mi SW 6.9 mph - N/A   Clear
9:15 PM 57.2 °F 35.6 °F 44% 29.82 in 10.0 mi SW 6.9 mph - N/A   Clear
9:35 PM 55.4 °F 35.6 °F 47% 29.82 in 10.0 mi SW 5.8 mph - N/A   Clear
9:55 PM 55.4 °F 35.6 °F 47% 29.82 in 10.0 mi WSW 6.9 mph - N/A   Clear
10:15 PM 53.6 °F 37.4 °F 54% 29.82 in 10.0 mi WSW 6.9 mph - N/A   Clear
10:35 PM 53.6 °F 37.4 °F 54% 29.82 in 10.0 mi WSW 6.9 mph - N/A   Clear
10:55 PM 55.4 °F 37.4 °F 51% 29.82 in 10.0 mi WSW 8.1 mph - N/A   Clear
11:15 PM 55.4 °F 35.6 °F 47% 29.83 in 10.0 mi West 6.9 mph - N/A   Clear
11:35 PM 55.4 °F 30.2 °F 38% 29.83 in 10.0 mi WNW 12.7 mph 18.4 mph N/A   Clear